Location: Newark
(27.9675°N, 86.8869°E)
Time: 08:41:40
(UTC+00:00)

Vanguard 3 - Pass Details

Date: 28 October 2019
Orbit: 508 x 3263 km, 33.3° (Epoch: 17 November)

Event Time Altitude Azimuth Distance (km) Brightness Sun altitude
Rises 20:22:38 0° 285° (WNW) 2,599 - -52.9°
Reaches altitude 10° 20:24:44 10° 278° (W) 1,721 - -52.5°
Maximum altitude 20:28:16 45° 204° (SSW) 773 - -51.7°
Drops below altitude 10° 20:32:47 10° 131° (SE) 2,193 - -50.7°
Sets 20:35:48 0° 126° (SE) 3,432 - -50.1°
Exits shadow 20:35:50 - 126° (SE) 3,442 10.7 -50.1°
